COSMOS 2456 [GLONASS-M] 1 36111U 09070A 21111.35027519 .00000095 00000-0 00000-0 0 9990 2 36111 64.2669 135.5407 0005801 304.2784 192.2809 2.13099235 88342 COSMOS 2457 [GLONASS-M] 1 36112U 09070B 21111.48191909 .00000096 00000-0 00000-0 0 9991 2 36112 64.2490 135.4225 0004625 192.8779 168.6014 2.13101428 88354 COSMOS 2458 [GLONASS-M] 1 36113U 09070C 21111.48415404 .00000096 00000-0 00000-0 0 9991 2 36113 64.2548 135.4470 0005940 303.6402 57.8446 2.13082532 88359 SL-12 R/B(AUX MOTOR) 1 36115U 09070E 21111.37987904 .00002085 00000-0 54770-3 0 9996 2 36115 64.6828 216.6971 5850026 355.7267 0.8956 4.25341013175683 SL-12 R/B(AUX MOTOR) 1 36116U 09070F 21111.48546792 .00001861 00000-0 36002-3 0 9994 2 36116 64.4636 215.6225 5871728 11.3534 357.5874 4.23735048 19797 SL-12 R/B(2) 1 36118U 09070H 21110.38419166 .00000085 00000-0 00000-0 0 9991 2 36118 64.2571 135.1062 0031007 200.3787 167.9702 2.13352322 88407 SL-12 DEB 1 45035U 09070N 21110.75891989 .00074916 00000-0 26316-1 0 9990 2 45035 64.1343 212.5725 5630699 11.7212 357.2808 4.56193110 19841 SL-12 DEB 1 45036U 09070P 21106.71786806 .00269766 00000-0 34903-1 0 9993 2 45036 64.1640 199.6969 5080640 11.3533 356.8343 5.50550030 20444 SL-12 DEB 1 45040U 09070R 21110.96416500 .00059265 00000-0 22337-1 0 9990 2 45040 64.0635 206.3537 5613935 8.7999 357.9639 4.58246836 20212 SL-12 DEB 1 45243U 09070S 21107.28156803 .00119963 00000-0 27370-1 0 9997 2 45243 63.9502 181.4321 4963230 15.5913 355.4713 5.65309407 20713